MARSHFIELD, MA current weather conditions

sailwx.info

Wind from 040 at 6 knots

Visibility: greater than 8.7 NM

Last reported at 2014-Oct-31 08:10 UTC.
Time now 2014-Oct-31 09:54 UTC

Location: N 42°06' W 070°40'.
View on Google Maps.

See reports from other nearby stations

  
Tides and Currents Weather Stations Pressure Air Temp Water Temp Dewpoint Dewpoint Depression Visibility Wind Speed Wind Dir Waves Ship Positions
date/time (UTC)wind fromknots sea level pressurealtimeterstation pressurevisibilityair tempwater tempwave heightnotes
2014-Oct-31 08:10 040 6 8.7
2014-Oct-31 07:50 040 4 8.7
2014-Oct-31 07:30 030 7 8.7
2014-Oct-31 07:10 040 8 8.7
2014-Oct-31 06:50 050 7 8.7
2014-Oct-31 06:30 050 5 8.711.0
2014-Oct-31 06:10 050 9 8.711.0
2014-Oct-31 05:50 040 5 8.7
2014-Oct-31 05:30 040 5 8.7
2014-Oct-31 05:10 030 5 8.7
2014-Oct-31 04:50 020 4 8.7
2014-Oct-31 04:30 8.7
2014-Oct-31 04:10 8.7
2014-Oct-31 03:50 8.7
2014-Oct-31 03:30 8.7
2014-Oct-31 03:10 8.7
2014-Oct-31 02:50 330 3 8.7
2014-Oct-31 02:30 320 3 8.7
2014-Oct-31 02:10 260 3 8.7
2014-Oct-31 01:50 8.7
2014-Oct-31 01:30 270 3 8.7
2014-Oct-31 01:10 8.7
2014-Oct-31 00:50 8.7
2014-Oct-31 00:30 270 3 8.7
2014-Oct-31 00:10 8.7
2014-Oct-30 23:50 8.7
2014-Oct-30 23:30 260 3 8.7
2014-Oct-30 23:10 8.7
2014-Oct-30 22:50 250 3 8.7
2014-Oct-30 22:30 8.7
2014-Oct-30 22:10 8.7
2014-Oct-30 21:50 260 3 8.7
2014-Oct-30 21:30 8.7
2014-Oct-30 21:10 8.7
2014-Oct-30 20:50 8.7
2014-Oct-30 20:30 8.7
2014-Oct-30 20:10 8.7
2014-Oct-30 19:50 010 5 8.7
2014-Oct-30 19:30 060 4 8.7
2014-Oct-30 19:10 050 4 8.7
2014-Oct-30 18:50 030 5 8.7
2014-Oct-30 18:30 060 6 8.7
2014-Oct-30 18:10 050 6 8.7
2014-Oct-30 17:50 040 5 8.7
2014-Oct-30 17:30 030 5 8.7
2014-Oct-30 17:10 040 5 8.7
2014-Oct-30 16:50 040 7 8.7
2014-Oct-30 16:30 030 4 8.7
2014-Oct-30 16:10 010 3 8.7
2014-Oct-30 15:50 330 6 8.7
2014-Oct-30 15:30 340 5 8.7
2014-Oct-30 15:10 360 5 8.7
2014-Oct-30 14:50 310 4 8.7
2014-Oct-30 14:30 310 6 8.7
2014-Oct-30 14:10 300 4 8.7
2014-Oct-30 13:50 280 4 8.7
2014-Oct-30 13:30 290 5 8.7
2014-Oct-30 13:10 290 5 8.7
2014-Oct-30 12:50 280 3 8.7
2014-Oct-30 12:30 280 3 8.7
2014-Oct-30 12:10 8.7
2014-Oct-30 11:50 8.7
2014-Oct-30 11:30 8.7
2014-Oct-30 11:10 8.7
2014-Oct-30 10:50 8.7
2014-Oct-30 10:30 260 3 8.7
2014-Oct-30 10:10 270 4 8.7
2014-Oct-30 09:50 270 4 8.7
2014-Oct-30 09:30 240 4 8.7
2014-Oct-30 09:10 260 5 8.7
2014-Oct-30 08:50 250 3 8.7
2014-Oct-30 08:30 260 3 8.7
2014-Oct-30 08:10 260 4 8.7
2014-Oct-30 07:50 260 4 8.7
2014-Oct-30 07:30 280 4 8.7
2014-Oct-30 07:10 270 3 8.7
2014-Oct-30 06:50 280 3 8.7
2014-Oct-30 06:30 270 3 8.7
2014-Oct-30 06:10 270 3 8.7
2014-Oct-30 05:50 280 4 8.7
2014-Oct-30 05:30 290 3 8.7
2014-Oct-30 05:10 290 5 8.7
2014-Oct-30 04:50 270 4 8.7
2014-Oct-30 04:30 260 5 8.7
2014-Oct-30 04:10 270 3 8.7
2014-Oct-30 03:50 240 4 8.7
2014-Oct-30 03:30 230 4 8.7
2014-Oct-30 03:10 240 4 8.7
2014-Oct-30 02:50 250 3 8.7
2014-Oct-30 02:30 270 4 8.7 Light drizzle.
2014-Oct-30 02:10 280 4 8.7
2014-Oct-30 01:50 290 3 8.7
2014-Oct-30 01:30 310 7 8.7
2014-Oct-30 01:10 320 5 8.7
2014-Oct-30 00:50 300 6 8.7 Light drizzle.
2014-Oct-30 00:30 300 3 8.7
2014-Oct-30 00:10 8.7
2014-Oct-29 23:50 8.7
2014-Oct-29 23:30 060 4 8.7
2014-Oct-29 23:10 8.7
2014-Oct-29 22:50 330 4 8.7
2014-Oct-29 22:30 340 4 8.7
2014-Oct-29 22:10 320 6 8.7
2014-Oct-29 21:50 360 6 8.7
2014-Oct-29 21:30 330 12 gusting 17 8.719.0
2014-Oct-29 21:10 220 8 8.7
2014-Oct-29 20:50 200 8 8.721.0
2014-Oct-29 20:30 200 7 8.7
2014-Oct-29 20:10 210 7 8.7
2014-Oct-29 19:50 210 8 8.723.0
2014-Oct-29 19:30 210 6 8.7
2014-Oct-29 19:10 210 9 8.7
2014-Oct-29 18:50 220 5 8.7
2014-Oct-29 18:30 220 8 8.7
2014-Oct-29 18:10 230 6 gusting 14 8.7
2014-Oct-29 17:50 210 11 8.7
2014-Oct-29 17:30 230 6 8.7
2014-Oct-29 17:10 210 5 8.7
2014-Oct-29 16:50 200 7 8.7
2014-Oct-29 16:30 210 6 8.7
2014-Oct-29 16:10 220 6 gusting 14 8.7
2014-Oct-29 15:50 210 8 8.723.0
2014-Oct-29 15:30 200 8 8.722.0
2014-Oct-29 15:10 200 6 gusting 15 8.7
2014-Oct-29 14:50 220 8 8.7
2014-Oct-29 14:30 210 11 gusting 15 8.7
2014-Oct-29 14:10 210 7 8.720.0
2014-Oct-29 13:50 220 7 8.7
2014-Oct-29 13:30 220 8 8.7
2014-Oct-29 13:10 210 7 8.7
2014-Oct-29 12:50 220 7 8.7
2014-Oct-29 12:30 210 6 8.7
2014-Oct-29 12:10 230 5 8.7
2014-Oct-29 11:50 220 7 8.7
2014-Oct-29 11:30 210 7 8.7
2014-Oct-29 11:10 210 7 8.7
2014-Oct-29 10:50 210 7 8.7
2014-Oct-29 10:30 210 6 8.7
2014-Oct-29 10:10 210 7 8.7
2014-Oct-29 09:50 210 6 8.7
2014-Oct-29 09:30 210 7 8.7
2014-Oct-29 09:10 220 7 8.7